GLOBALSTAR M031 [-]

Last updated on Fri Dec 29 2023 00:02:56 GMT+0000 (Greenwich Mean Time)

1 25946U 99058D 23362.50637910 -.00000022 00000+0 69902-3 0 9997 2 25946 51.9935 159.2163 0002303 140.4214 323.5443 12.16000765 99494
UTC large
Height (km)
Speed (km/s)
/
Latitude / Longitude
Inclination (degrees)
Orbital Period (minutes)
Azimuth
Elevation
Range (km)
Doppler Factor

Next 0 passes for location: London (51.5072 / 0.1276)

Sorry there are no passes over London.